Torna al catalogo

YAOGAN-30 E

AttivoMilitareVLEO
NORAD 43029·PAYLOAD·🇨🇳 China

Lanciato Nov 24, 2017 da Xichang Satellite Launch Center

Loading…

Prossimi Passaggi (prossime 24 ore)

TLE

AggiornatoSource: Space-Track

Epoca: Sep 14, 2026, 14:55 UTC

1 43029U 17075B   26257.62205017  .00001779  00000-0  13164-3 0  9995
2 43029  34.9935  84.9678 0004427 300.4681  59.5590 15.03006238480827

Traccia YAOGAN-30 E in tempo reale con AllMySat

Download on the App Store